Weather History for Vandenberg AFB, CA

Change the Weather History Date:

Thursday, February 7, 2013

  Actual Average Record
Temperature  
Mean Temperature 47 °F -  
Max Temperature 55 °F 58 °F 73 °F (2006)
Min Temperature 39 °F 42 °F 35 °F (2001)
Degree Days  
Heating Degree Days 18    
Moisture  
Dew Point 43 °F    
Average Humidity 84    
Maximum Humidity 100    
Minimum Humidity 53    
Precipitation  
Precipitation 0.00 in - - ()
Sea Level Pressure  
Sea Level Pressure 30.11 in    
Wind  
Wind Speed 6 mph (NNW)    
Max Wind Speed 17 mph    
Max Gust Speed 24 mph    
Visibility 8 miles    
Events Fog , Rain    
Averages and records for this station are not official NWS values.
T = Trace of Precipitation, MM = Missing Value Source: NWS Daily Summary

Daily Weather History Graph

Daily Weather History Graph

Search for Another Location

Airport:

Trip Planner

Search our weather history database for the weather conditions in past years. The results will help you decide how hot, cold, wet, or windy it might be!

Date:

Astronomy

Feb. 07, 2013 Rise Set
Actual Time 6:55 AM PST 5:38 PM PST
Civil Twilight 6:29 AM PST 6:04 PM PST
Nautical Twilight 5:59 AM PST 6:34 PM PST
Astronomical Twilight 5:29 AM PST 7:03 PM PST
Moon 4:35 AM PST (2/7) 3:11 PM PST (2/7)
Length of Visible Light 11h 34m
Length of Day
10h 42m
Waning Crescent, 8% of the Moon is Illuminated
Feb 7
Waning Crescent
Feb 9
New
Feb 17
First Quarter
Feb 25
Full
Mar 4
Last Quarter

Hourly Weather History & Observations

Time (PST) Temp. Windchill Dew Point Humidity Pressure Visibility Wind Dir Wind Speed Gust Speed Precip Events Conditions
12:10 AM 46.4 °F 44.3 °F 42.8 °F 87% 30.14 in 8.0 mi North 4.6 mph - N/A   Scattered Clouds
12:55 AM 45.0 °F 41.2 °F 42.1 °F 90% 30.12 in 10.0 mi North 6.9 mph - N/A   Partly Cloudy
1:06 AM 44.6 °F 41.4 °F 42.8 °F 93% 30.14 in 10.0 mi North 5.8 mph - N/A   Mostly Cloudy
1:55 AM 46.0 °F 43.1 °F 44.1 °F 93% 30.11 in 6.0 mi North 5.8 mph - N/A   Overcast
2:16 AM 44.6 °F 43.1 °F 42.8 °F 93% 30.13 in 6.0 mi North 3.5 mph - N/A   Scattered Clouds
2:35 AM 42.8 °F 39.3 °F 39.2 °F 87% 30.13 in 2.5 mi East 5.8 mph - N/A   Mostly Cloudy
2:37 AM 42.8 °F 39.3 °F 41.0 °F 93% 30.13 in 1.8 mi East 5.8 mph - N/A   Mostly Cloudy
2:40 AM 42.8 °F 40.1 °F 41.0 °F 93% 30.13 in 1.0 mi East 4.6 mph - N/A   Mist
2:43 AM 42.8 °F 40.1 °F 41.0 °F 93% 30.13 in 0.5 mi East 4.6 mph - N/A Fog Fog
2:51 AM 42.8 °F 40.1 °F 41.0 °F 93% 30.13 in 0.2 mi East 4.6 mph - N/A Fog Fog
2:55 AM 42.1 °F 38.4 °F 41.0 °F 96% 30.11 in 0.2 mi East 5.8 mph - N/A Fog Fog
3:06 AM 42.8 °F 40.1 °F 39.2 °F 87% 30.13 in 0.5 mi East 4.6 mph - N/A Fog Fog
3:13 AM 42.8 °F 39.3 °F 39.2 °F 87% 30.13 in 0.2 mi East 5.8 mph - N/A Fog Fog
3:25 AM 42.8 °F - 41.0 °F 93% 30.13 in 0.5 mi Calm Calm - N/A Fog Fog
3:32 AM 42.8 °F - 42.8 °F 100% 30.13 in 1.0 mi Calm Calm - N/A   Overcast
3:34 AM 42.8 °F - 42.8 °F 100% 30.13 in 1.8 mi Calm Calm - N/A   Overcast
3:36 AM 42.8 °F - 42.8 °F 100% 30.13 in 3.0 mi Calm Calm - N/A   Overcast
3:55 AM 46.0 °F - 44.1 °F 93% 30.11 in 10.0 mi Calm Calm - N/A   Overcast
4:34 AM 46.4 °F - 44.6 °F 93% 30.13 in 9.0 mi Calm Calm - N/A   Overcast
4:55 AM 46.0 °F 44.8 °F 43.0 °F 89% 30.11 in 9.0 mi NW 3.5 mph - N/A   Overcast
5:28 AM 46.4 °F - 44.6 °F 93% 30.14 in 8.0 mi Calm Calm - N/A   Overcast
5:37 AM 46.4 °F - 44.6 °F 93% 30.14 in 9.0 mi Calm Calm - N/A   Overcast
5:50 AM 44.6 °F - 42.8 °F 93% 30.14 in 10.0 mi Calm Calm - N/A   Overcast
5:55 AM 45.0 °F - 43.0 °F 93% 30.12 in 10.0 mi Calm Calm - N/A   Overcast
6:55 AM 39.9 °F 35.8 °F 37.9 °F 93% 30.13 in 5.0 mi ESE 5.8 mph - N/A   Mostly Cloudy
7:55 AM 45.0 °F 42.6 °F 42.1 °F 90% 30.14 in 6.0 mi ESE 4.6 mph - N/A   Mostly Cloudy
8:55 AM 50.0 °F - 44.1 °F 80% 30.16 in 8.0 mi Calm Calm - N/A   Mostly Cloudy
9:20 AM 50.0 °F - 44.6 °F 82% 30.19 in 10.0 mi NNW 4.6 mph - N/A   Scattered Clouds
9:55 AM 52.0 °F - 43.0 °F 71% 30.16 in 10.0 mi NW 10.4 mph - N/A   Scattered Clouds
10:55 AM 55.0 °F - 39.9 °F 57% 30.16 in 10.0 mi NNW 17.3 mph 24.2 mph N/A   Partly Cloudy
11:55 AM 55.0 °F - 37.9 °F 53% 30.14 in 10.0 mi NW 15.0 mph 24.2 mph N/A   Scattered Clouds
12:55 PM 55.9 °F - 41.0 °F 57% 30.12 in 10.0 mi NW 15.0 mph - N/A   Scattered Clouds
1:55 PM 55.0 °F - 42.1 °F 62% 30.10 in 10.0 mi WNW 13.8 mph 24.2 mph N/A   Scattered Clouds
2:55 PM 55.0 °F - 43.0 °F 64% 30.09 in 10.0 mi NW 15.0 mph 23.0 mph N/A   Scattered Clouds
3:55 PM 54.0 °F - 45.0 °F 72% 30.07 in 10.0 mi WNW 15.0 mph 20.7 mph N/A   Scattered Clouds
4:55 PM 52.0 °F - 45.0 °F 77% 30.06 in 10.0 mi NW 11.5 mph - N/A   Scattered Clouds
5:32 PM 51.8 °F - 44.6 °F 76% 30.08 in 10.0 mi NW 9.2 mph - N/A   Mostly Cloudy
5:39 PM 51.8 °F - 44.6 °F 76% 30.08 in 10.0 mi NW 10.4 mph - N/A   Overcast
5:55 PM 50.0 °F - 45.0 °F 83% 30.06 in 10.0 mi NW 8.1 mph - N/A   Mostly Cloudy
6:16 PM 50.0 °F - 46.4 °F 87% 30.08 in 10.0 mi NW 6.9 mph - N/A   Mostly Cloudy
6:44 PM 51.8 °F - 46.4 °F 82% 30.08 in 10.0 mi NW 8.1 mph - N/A   Overcast
6:55 PM 51.1 °F - 46.0 °F 83% 30.06 in 10.0 mi WNW 10.4 mph - N/A   Mostly Cloudy
7:07 PM 50.0 °F - 44.6 °F 82% 30.08 in 10.0 mi NW 10.4 mph - N/A   Mostly Cloudy
7:14 PM 50.0 °F - 44.6 °F 82% 30.08 in 10.0 mi NW 8.1 mph - N/A   Mostly Cloudy
7:32 PM 48.2 °F - 46.4 °F 93% 30.07 in 10.0 mi NW 6.9 mph - N/A   Mostly Cloudy
7:44 PM 50.0 °F - 46.4 °F 87% 30.07 in 10.0 mi WNW 12.7 mph 17.3 mph N/A   Mostly Cloudy
7:55 PM 50.0 °F - 45.0 °F 83% 30.05 in 10.0 mi NW 12.7 mph - N/A   Mostly Cloudy
8:13 PM 48.2 °F - 42.8 °F 82% 30.07 in 10.0 mi NW 11.5 mph - N/A   Scattered Clouds
8:55 PM 46.9 °F - 41.0 °F 80% 30.05 in 10.0 mi NW 8.1 mph - N/A   Partly Cloudy
9:55 PM 48.0 °F - 37.9 °F 68% 30.05 in 10.0 mi WNW 12.7 mph - N/A   Clear
10:55 PM 46.9 °F - 37.9 °F 71% 30.04 in 10.0 mi NW 10.4 mph - N/A   Clear
11:31 PM 48.2 °F - 42.8 °F 82% 30.06 in 10.0 mi NW 13.8 mph 18.4 mph 0.00 in Rain Light Rain
11:55 PM 46.9 °F - 39.0 °F 74% 30.03 in 10.0 mi NW 11.5 mph - 0.00 in   Partly Cloudy